Location: Township of Marena
(38.1747°N, 99.6798°W)
Time: 12:18:57
(UTC+00:00)

YAOGAN 1 - Pass Details

Date: 26 October 2020
Orbit: 618 x 620 km, 97.9° (Epoch: 25 November)

Event Time Altitude Azimuth Distance (km) Brightness Sun altitude
Rises 00:10:32 0° 122° (ESE) 2,887 5.6 -5.4°
Reaches altitude 10° 00:13:35 10° 98° (E) 1,986 4.6 -5.9°
Maximum altitude 00:15:55 14° 65° (ENE) 1,712 4.2 -6.4°
Drops below altitude 10° 00:18:15 10° 32° (NNE) 1,993 4.8 -6.8°
Sets 00:21:19 0° 9° (N) 2,904 5.8 -7.4°
